When you browse on this site, cookies collect data to enhance your experience and personalize the content and advertising you see.
Visit our Privacy Policy to learn more. By continuing to use the site, you agree to this use of cookies and data.
  • In United Kingdom
  • List of Countries
  • For 7 days
  • Water Temperature
  • Satellite Maps
  • Weather Map
  • Weather Widgets
  • user-avatar
    Login

    Hourly Weather Nicastro

    Today, 19 May, Sunday

    Time Temperature Precipitation Wind Pressure Humidity
    00:00 +14°C° 0 mm 1 mps 722 mmHg 88%
    01:00 +14°C° 0 mm 1 mps 721 mmHg 85%
    02:00 +13°C° 0 mm 1 mps 721 mmHg 86%
    03:00 +13°C° 0 mm 1 mps 721 mmHg 86%
    04:00 +13°C° 0 mm 1 mps 721 mmHg 87%
    05:00 +14°C° 0 mm 1 mps 721 mmHg 84%
    06:00 +15°C° 0 mm 2 mps 721 mmHg 81%
    07:00 +16°C° 0 mm 3 mps 720 mmHg 80%
    08:00 +17°C° 0 mm 4 mps 721 mmHg 76%
    09:00 +17°C° 0 mm 4 mps 721 mmHg 73%
    10:00 +18°C° 0 mm 4 mps 721 mmHg 70%
    11:00 +18°C° 0.1 mm 4 mps 721 mmHg 71%
    12:00 +18°C° 0.1 mm 4 mps 721 mmHg 72%
    13:00 +17°C° 0.1 mm 5 mps 722 mmHg 72%
    14:00 +17°C° 0 mm 4 mps 722 mmHg 72%
    15:00 +17°C° 0 mm 4 mps 722 mmHg 71%
    16:00 +17°C° 0 mm 4 mps 722 mmHg 70%
    17:00 +16°C° 0 mm 3 mps 722 mmHg 77%
    18:00 +14°C° 0 mm 3 mps 723 mmHg 84%
    19:00 +13°C° 0 mm 2 mps 723 mmHg 91%
    20:00 +13°C° 0 mm 2 mps 723 mmHg 92%
    21:00 +13°C° 0 mm 2 mps 724 mmHg 93%
    22:00 +12°C° 0 mm 2 mps 724 mmHg 95%
    23:00 +12°C° 0 mm 1 mps 724 mmHg 92%

    Tomorrow, 20 May, Monday

    Time Temperature Precipitation Wind Pressure Humidity
    00:00 +12°C° 0 mm 1 mps 724 mmHg 89%
    01:00 +12°C° 0 mm 1 mps 724 mmHg 86%
    02:00 +12°C° 0 mm 1 mps 724 mmHg 84%
    03:00 +11°C° 0 mm 1 mps 724 mmHg 82%
    04:00 +11°C° 0 mm 1 mps 723 mmHg 80%
    05:00 +13°C° 0 mm 1 mps 724 mmHg 76%
    06:00 +14°C° 0 mm 2 mps 724 mmHg 72%
    07:00 +15°C° 0 mm 2 mps 725 mmHg 67%
    08:00 +16°C° 0 mm 2 mps 725 mmHg 61%
    09:00 +18°C° 0 mm 3 mps 726 mmHg 56%
    10:00 +19°C° 0 mm 3 mps 726 mmHg 50%
    11:00 +19°C° 0 mm 3 mps 726 mmHg 47%
    12:00 +19°C° 0 mm 4 mps 726 mmHg 45%
    13:00 +20°C° 0 mm 4 mps 726 mmHg 42%
    14:00 +19°C° 0 mm 4 mps 726 mmHg 43%
    15:00 +19°C° 0 mm 4 mps 726 mmHg 44%
    16:00 +18°C° 0 mm 3 mps 726 mmHg 44%
    17:00 +16°C° 0 mm 3 mps 726 mmHg 52%
    18:00 +15°C° 0 mm 2 mps 726 mmHg 61%
    19:00 +13°C° 0 mm 2 mps 726 mmHg 69%
    20:00 +12°C° 0 mm 2 mps 726 mmHg 74%
    21:00 +12°C° 0 mm 2 mps 727 mmHg 79%
    22:00 +10°C° 0 mm 2 mps 727 mmHg 85%
    23:00 +10°C° 0 mm 2 mps 727 mmHg 87%

    Day after tomorrow, 21 May, Tuesday

    Time Temperature Precipitation Wind Pressure Humidity
    00:00 +11°C° 0 mm 3 mps 727 mmHg 89%
    01:00 +11°C° 0 mm 3 mps 727 mmHg 92%
    02:00 +11°C° 0 mm 3 mps 727 mmHg 92%
    03:00 +12°C° 0 mm 2 mps 727 mmHg 92%
    04:00 +12°C° 0 mm 2 mps 727 mmHg 92%
    05:00 +13°C° 0 mm 2 mps 727 mmHg 87%
    06:00 +14°C° 0 mm 2 mps 727 mmHg 83%
    07:00 +15°C° 0 mm 2 mps 728 mmHg 78%
    08:00 +16°C° 0 mm 2 mps 728 mmHg 70%
    09:00 +18°C° 0 mm 3 mps 728 mmHg 62%
    10:00 +19°C° 0 mm 4 mps 729 mmHg 54%
    11:00 +19°C° 0 mm 4 mps 729 mmHg 52%
    12:00 +20°C° 0 mm 4 mps 729 mmHg 49%
    13:00 +20°C° 0 mm 4 mps 729 mmHg 47%
    14:00 +20°C° 0 mm 4 mps 729 mmHg 48%
    15:00 +19°C° 0 mm 3 mps 729 mmHg 50%
    16:00 +19°C° 0 mm 3 mps 728 mmHg 51%
    17:00 +17°C° 0 mm 2 mps 728 mmHg 60%
    18:00 +15°C° 0 mm 2 mps 728 mmHg 69%
    19:00 +13°C° 0 mm 1 mps 728 mmHg 78%
    20:00 +13°C° 0 mm 1 mps 729 mmHg 77%
    21:00 +12°C° 0 mm 2 mps 729 mmHg 76%
    22:00 +12°C° 0 mm 2 mps 729 mmHg 75%
    23:00 +12°C° 0 mm 2 mps 729 mmHg 71%

    22 May, Wednesday

    Time Temperature Precipitation Wind Pressure Humidity
    00:00 +12°C° 0 mm 2 mps 729 mmHg 66%
    01:00 +12°C° 0 mm 2 mps 729 mmHg 62%
    02:00 +12°C° 0 mm 2 mps 729 mmHg 60%
    03:00 +12°C° 0 mm 2 mps 729 mmHg 58%
    04:00 +12°C° 0 mm 2 mps 729 mmHg 57%
    05:00 +13°C° 0 mm 2 mps 729 mmHg 54%
    06:00 +15°C° 0 mm 1 mps 729 mmHg 51%
    07:00 +18°C° 0 mm 1 mps 729 mmHg 49%
    08:00 +18°C° 0 mm 2 mps 729 mmHg 45%
    09:00 +20°C° 0 mm 2 mps 730 mmHg 41%
    10:00 +21°C° 0 mm 2 mps 730 mmHg 36%
    11:00 +22°C° 0 mm 3 mps 730 mmHg 37%
    12:00 +22°C° 0 mm 3 mps 730 mmHg 37%
    13:00 +22°C° 0 mm 4 mps 730 mmHg 37%
    14:00 +22°C° 0 mm 3 mps 730 mmHg 41%
    15:00 +21°C° 0 mm 3 mps 729 mmHg 45%
    16:00 +20°C° 0 mm 2 mps 729 mmHg 49%
    17:00 +18°C° 0 mm 2 mps 729 mmHg 57%
    18:00 +17°C° 0 mm 2 mps 729 mmHg 65%
    19:00 +15°C° 0 mm 1 mps 728 mmHg 73%
    20:00 +14°C° 0 mm 1 mps 729 mmHg 73%
    21:00 +14°C° 0 mm 1 mps 729 mmHg 72%
    22:00 +14°C° 0 mm 1 mps 729 mmHg 71%
    23:00 +13°C° 0 mm 1 mps 729 mmHg 69%

    23 May, Thursday

    Time Temperature Precipitation Wind Pressure Humidity
    00:00 +13°C° 0 mm 1 mps 728 mmHg 68%
    01:00 +13°C° 0 mm 2 mps 728 mmHg 66%
    02:00 +12°C° 0 mm 1 mps 728 mmHg 67%
    03:00 +12°C° 0 mm 1 mps 728 mmHg 68%
    04:00 +12°C° 0 mm 1 mps 728 mmHg 69%
    05:00 +14°C° 0 mm 1 mps 728 mmHg 65%
    06:00 +15°C° 0 mm 1 mps 728 mmHg 62%
    07:00 +18°C° 0 mm 1 mps 728 mmHg 58%
    08:00 +18°C° 0 mm 2 mps 728 mmHg 55%
    09:00 +19°C° 0 mm 2 mps 729 mmHg 52%
    10:00 +21°C° 0 mm 3 mps 729 mmHg 48%
    11:00 +21°C° 0 mm 3 mps 729 mmHg 50%
    12:00 +21°C° 0 mm 3 mps 728 mmHg 51%
    13:00 +21°C° 0 mm 3 mps 728 mmHg 52%
    14:00 +20°C° 0.1 mm 3 mps 728 mmHg 56%
    15:00 +19°C° 0.1 mm 3 mps 728 mmHg 60%
    16:00 +19°C° 0.1 mm 3 mps 727 mmHg 65%
    17:00 +17°C° 0 mm 3 mps 727 mmHg 73%
    18:00 +16°C° 0 mm 2 mps 727 mmHg 82%
    19:00 +14°C° 0 mm 2 mps 727 mmHg 91%
    20:00 +14°C° 0 mm 2 mps 728 mmHg 92%
    21:00 +13°C° 0 mm 2 mps 728 mmHg 93%
    22:00 +13°C° 0 mm 2 mps 728 mmHg 93%
    23:00 +13°C° 0.1 mm 2 mps 728 mmHg 94%

    24 May, Friday

    Time Temperature Precipitation Wind Pressure Humidity
    00:00 +13°C° 0.1 mm 2 mps 727 mmHg 94%
    01:00 +13°C° 0.1 mm 2 mps 727 mmHg 95%
    02:00 +13°C° 0 mm 2 mps 727 mmHg 94%
    03:00 +13°C° 0 mm 2 mps 727 mmHg 94%
    04:00 +13°C° 0 mm 2 mps 727 mmHg 94%
    05:00 +13°C° 0 mm 3 mps 727 mmHg 91%
    06:00 +13°C° 0 mm 3 mps 727 mmHg 89%
    07:00 +13°C° 0 mm 3 mps 727 mmHg 87%
    08:00 +16°C° 0 mm 3 mps 727 mmHg 82%
    09:00 +17°C° 0 mm 3 mps 727 mmHg 76%
    10:00 +18°C° 0 mm 3 mps 727 mmHg 71%
    11:00 +18°C° 0 mm 3 mps 727 mmHg 71%
    12:00 +19°C° 0 mm 3 mps 727 mmHg 71%
    13:00 +19°C° 0 mm 4 mps 727 mmHg 71%
    14:00 +18°C° 0.1 mm 4 mps 726 mmHg 74%
    15:00 +18°C° 0.1 mm 4 mps 726 mmHg 77%
    16:00 +17°C° 0.1 mm 4 mps 726 mmHg 80%
    17:00 +16°C° 0 mm 3 mps 726 mmHg 84%
    18:00 +16°C° 0 mm 3 mps 725 mmHg 87%
    19:00 +14°C° 0 mm 3 mps 725 mmHg 91%
    20:00 +14°C° 0 mm 3 mps 726 mmHg 92%
    21:00 +13°C° 0 mm 3 mps 726 mmHg 93%
    22:00 +13°C° 0 mm 3 mps 726 mmHg 94%
    23:00 +14°C° 0 mm 2 mps 726 mmHg 93%
    Show more